Отрожный

Россия / Чукотский автономный округ     65°07′20″N   172°47′50″E
темп.,
°C
ветер,
м/с
пор.,
м/с
влажн.,
%
обл.,
%
осадки,
мм/ч
давл.,
гПа
погр.,
м
24 октября, вс
вс2400:00−29з1110059 0.0 10139
03:00−28з1110054 0.0 10139
06:00−30з1110071 0.0 10149
09:00−30зсз1110072 0.0 10159
12:00−26зсз119944 0.0 101528
15:00−28зсз1110026 0.0 10159
18:00−30зюз1110021 0.0 10159
21:00−31зюз1110044 0.0 10159
25 октября, пн
пн2500:00−32з1110037 0.0 10159
03:00−32з1110035 0.0 10149
06:00−33з1110035 0.0 10139
09:00−33з1110035 0.0 10139
12:00−29зсз119934 0.0 101219
15:00−30зсз1110021 0.0 10119
18:00−33з1110039 0.0 10119
21:00−32з1110054 0.0 10119
26 октября, вт
вт2600:00−33з1110038 0.0 10119
03:00−33зсз1110052 0.0 10109
06:00−33зсз1110052 0.0 10119
09:00−33зсз1110054 0.0 10119
12:00−27ссз119789 0.0 101037
15:00−27ссз119899 0.0 101021
18:00−28сз119990 0.0 10109
21:00−27сз1199100 0.0 101115
27 октября, ср
ср2700:00−26зсз1198100 0.0 101110
03:00−25зсз1197100 0.0 101220
06:00−26зсз1197100 0.0 101310
09:00−29зсз119866 0.0 10159
12:00−27зсз119814 0.0 101612
15:00−28зсз11995 0.0 10179
18:00−31з119915 0.0 10189
21:00−32з1110031 0.0 10199
28 октября, чт
чт2800:00−32з1110039 0.0 10199
03:00−33з1110035 0.0 10209
06:00−33з1110039 0.0 10209
09:00−33з1110043 0.0 10209
12:00−30зсз1110031 0.0 102014
15:00−31зсз1110034 0.0 10209
18:00−33зюз1110021 0.0 10209
21:00−33юз0010040 0.0 10199